Location: *
(2.5500°S, 65.9667°W)
Time: 19:40:24
(UTC+00:00)

Transit 2A - Visible Passes

Search period start: 19 April 2024 00:00
Search period end: 29 April 2024 00:00
Orbit: 596 x 956 km, 66.7° (Epoch: 18 April)

Date Brightness Start Highest point End Pass type
(mag) Time Alt. Az. Time Alt. Az. Time Alt. Az.
19 Apr 8.1 08:32:15 10° SSE 08:35:16 18° ESE 08:38:12 10° ENE visible
19 Apr 9.3 22:50:46 10° W 22:53:11 12° WSW 22:55:37 10° SW visible
20 Apr 6.2 09:39:10 11° SW 09:42:59 32° WNW 09:46:51 10° N visible
21 Apr 5.4 09:06:22 37° SW 09:07:57 65° WNW 09:12:12 10° NNE visible
22 Apr 6.0 08:33:24 57° ENE 08:33:24 57° ENE 08:37:07 10° NNE visible
23 Apr 8.1 08:00:18 18° ENE 08:00:18 18° ENE 08:01:37 10° NE visible
24 Apr 7.6 09:07:31 13° NW 09:07:31 13° NW 09:08:21 10° NNW visible
25 Apr 8.1 08:34:07 11° N 08:34:07 11° N 08:34:16 10° N visible
